XE2WR-3 Weather Reports


time (UTC)temp
C
wind
direction
speed
KPH
gust
KPH
rain 1hr
cm
rain 24hr
cm
rain mn
cm
humidity
%
barometer
mb
20200229080005 11 250 0.0 3.2 0.00 0.00 0.00 57 1024.3
20200229074644 12 216 1.6 6.4 0.00 0.00 0.00 56 1024.4
20200229074501 12 246 3.2 6.4 0.00 0.00 0.00 55 1024.5
20200229071622 13 176 3.2 6.4 0.00 0.00 0.00 46 1024.8
20200229070104 13 127 1.6 8.0 0.00 0.00 0.00 45 1025.0
20200229064553 13 155 1.6 3.2 0.00 0.00 0.00 39 1025.2
20200229061521 14 102 0.0 3.2 0.00 0.00 0.00 35 1025.6
20200229060042 14 143 3.2 6.4 0.00 0.00 0.00 35 1025.6
20200229054546 15 83 4.8 9.7 0.00 0.00 0.00 32 1025.8
20200229051543 15 93 0.0 4.8 0.00 0.00 0.00 31 1025.7
20200229050048 15 119 0.0 1.6 0.00 0.00 0.00 31 1025.9
20200229044518 16 83 4.8 8.0 0.00 0.00 0.00 29 1025.9
20200229041515 16 119 1.6 4.8 0.00 0.00 0.00 30 1025.9
20200229040015 16 153 1.6 8.0 0.00 0.00 0.00 30 1025.9
20200229034515 16 125 1.6 12.9 0.00 0.00 0.00 29 1026.0
20200229031541 17 76 6.4 11.3 0.00 0.00 0.00 28 1025.9
20200229030039 17 124 4.8 14.5 0.00 0.00 0.00 28 1025.9
20200229024522 17 108 8.0 16.1 0.00 0.00 0.00 27 1025.8
20200229021539 17 77 8.0 22.5 0.00 0.00 0.00 27 1025.5
20200229020015 18 72 4.8 12.9 0.00 0.00 0.00 22 1025.3
20200229014522 18 74 4.8 9.7 0.00 0.00 0.00 22 1025.2
20200229011530 18 118 6.4 12.9 0.00 0.00 0.00 22 1025.0
20200229010028 18 79 9.7 16.1 0.00 0.00 0.00 21 1024.9
20200229004514 19 103 8.0 16.1 0.00 0.00 0.00 21 1025.0
20200229001542 19 107 11.3 17.7 0.00 0.00 0.00 20 1024.7
20200229000036 20 103 9.7 16.1 0.00 0.00 0.00 19 1024.7
20200228234552 20 80 8.0 17.7 0.00 0.00 0.00 18 1024.9
20200228231617 20 82 9.7 17.7 0.00 0.00 0.00 18 1024.7
20200228230102 20 92 9.7 14.5 0.00 0.00 0.00 19 1024.6
20200228224625 20 56 8.0 16.1 0.00 0.00 0.00 20 1024.6
20200228223115 20 70 11.3 19.3 0.00 0.00 0.00 20 1024.5
20200228221617 20 150 12.9 17.7 0.00 0.00 0.00 20 1024.4
20200228214544 20 121 6.4 19.3 0.00 0.00 0.00 20 1024.9
20200228213101 20 98 9.7 17.7 0.00 0.00 0.00 20 1025.0
20200228211613 20 113 11.3 19.3 0.00 0.00 0.00 20 1025.0
20200228204558 20 104 8.0 17.7 0.00 0.00 0.00 21 1025.3
20200228203113 20 51 8.0 16.1 0.00 0.00 0.00 21 1025.4
20200228201617 20 102 9.7 16.1 0.00 0.00 0.00 21 1025.4
20200228194630 19 140 6.4 12.9 0.00 0.00 0.00 21 1026.0
20200228193035 18 67 8.0 12.9 0.00 0.00 0.00 20 1026.2
20200228191549 18 128 6.4 12.9 0.00 0.00 0.00 19 1026.6
20200228184555 18 82 3.2 9.7 0.00 0.00 0.00 20 1027.2
20200228183053 18 91 4.8 11.3 0.00 0.00 0.00 21 1027.5
20200228181535 18 95 6.4 14.5 0.00 0.00 0.00 22 1027.8
20200228174551 17 109 4.8 11.3 0.00 0.00 0.00 25 1028.0
20200228173050 17 82 8.0 14.5 0.00 0.00 0.00 28 1028.2
20200228171622 17 77 4.8 11.3 0.00 0.00 0.00 28 1028.0
20200228164532 16 84 4.8 8.0 0.00 0.00 0.00 31 1028.4
20200228163045 15 70 4.8 6.4 0.00 0.00 0.00 32 1028.5
20200228161524 15 91 1.6 6.4 0.00 0.00 0.00 33 1028.5
20200228154513 15 90 0.0 3.2 0.00 0.00 0.00 34 1028.4
20200228153011 14 44 0.0 6.4 0.00 0.00 0.00 36 1028.3
20200228151616 14 117 0.0 3.2 0.00 0.00 0.00 35 1028.0
20200228144709 13 83 0.0 3.2 0.00 0.00 0.00 38 1027.7
20200228143142 14 239 0.0 1.6 0.00 0.00 0.00 39 1027.6
20200228141626 12 239 0.0 1.6 0.00 0.00 0.00 40 1027.4
20200228134738 9 239 0.0 3.2 0.00 0.00 0.00 47 1027.1
20200228133055 8 240 0.0 3.2 0.00 0.00 0.00 46 1026.9
20200228131626 8 233 1.6 6.4 0.00 0.00 0.00 47 1026.4
20200228124646 7 225 3.2 6.4 0.00 0.00 0.00 49 1026.5
20200228123108 7 218 3.2 4.8 0.00 0.00 0.00 50 1026.2
20200228121628 7 205 1.6 4.8 0.00 0.00 0.00 48 1025.9
20200228114609 7 211 0.0 1.6 0.00 0.00 0.00 49 1025.8
20200228113057 7 151 0.0 4.8 0.00 0.00 0.00 49 1025.2
20200228111630 7 226 3.2 4.8 0.00 0.00 0.00 48 1025.1
20200228104645 7 225 1.6 3.2 0.00 0.00 0.00 48 1025.1
20200228103119 7 231 4.8 6.4 0.00 0.00 0.00 48 1025.2
20200228101551 7 228 1.6 3.2 0.00 0.00 0.00 49 1025.3
20200228094549 7 249 0.0 1.6 0.00 0.00 0.00 52 1025.2
20200228093155 7 257 1.6 3.2 0.00 0.00 0.00 52 1025.2
20200228091622 7 262 1.6 4.8 0.00 0.00 0.00 51 1025.1
20200228084554 8 269 0.0 1.6 0.00 0.00 0.00 47 1025.0
20200228083049 8 269 0.0 1.6 0.00 0.00 0.00 46 1025.1
20200228081550 9 269 0.0 3.2 0.00 0.00 0.00 43 1025.0